Guest User

Untitled

a guest
Sep 22nd, 2011
140
Never
Not a member of Pastebin yet? Sign Up, it unlocks many cool features!
  1. Last 200 lines of an attempt to playback a recording using the new (2011-09-23) cmyth-only mythtv XBMC addon.
  2.  
  3. 03:42:44 T:12734864 DEBUG: 12734864 - Alloc resources: 5.76ms (5.57 ms skin load)
  4. 03:42:44 T:59935600 DEBUG: 59935600 - SECTION:LoadDLL(special://xbmcbin/system/ImageLib-i486-linux.so)
  5. 03:42:44 T:59935600 DEBUG: 59935600 - Loading: /home/myth/src/xbmc-tsp-mythtv-addon/system/ImageLib-i486-linux.so
  6. 03:42:46 T:12734864 DEBUG: 12734864 - SDLKeyboard: scancode: 09, sym: 001b, unicode: 001b, modifier: 0
  7. 03:42:46 T:12734864 DEBUG: 12734864 - OnKey: escape (f01b) pressed, action is PreviousMenu
  8. 03:42:46 T:12734864 DEBUG: 12734864 - CGUIWindowManager::PreviousWindow: Deactivate
  9. 03:42:46 T:12734864 DEBUG: 12734864 - ------ Window Deinit (Settings.xml) ------
  10. 03:42:46 T:12734864 DEBUG: 12734864 - CGUIWindowManager::PreviousWindow: Activate new
  11. 03:42:46 T:12734864 DEBUG: 12734864 - ------ Window Init (Home.xml) ------
  12. 03:42:46 T:12734864 INFO: 12734864 - Loading skin file: Home.xml
  13. 03:42:46 T:12734864 DEBUG: 12734864 - Load Home.xml: 26.47ms
  14. 03:42:46 T:12734864 DEBUG: 12734864 - Alloc resources: 27.37ms (26.72 ms skin load)
  15. 03:42:47 T:12734864 DEBUG: 12734864 - SDLKeyboard: scancode: 71, sym: 0114, unicode: 0000, modifier: 0
  16. 03:42:47 T:12734864 DEBUG: 12734864 - OnKey: left (f082) pressed, action is Left
  17. 03:42:47 T:12734864 DEBUG: 12734864 - SDLKeyboard: scancode: 71, sym: 0114, unicode: 0000, modifier: 0
  18. 03:42:47 T:12734864 DEBUG: 12734864 - OnKey: left (f082) pressed, action is Left
  19. 03:42:47 T:12734864 DEBUG: 12734864 - SDLKeyboard: scancode: 71, sym: 0114, unicode: 0000, modifier: 0
  20. 03:42:47 T:12734864 DEBUG: 12734864 - OnKey: left (f082) pressed, action is Left
  21. 03:42:48 T:12734864 DEBUG: 12734864 - SDLKeyboard: scancode: 71, sym: 0114, unicode: 0000, modifier: 0
  22. 03:42:48 T:12734864 DEBUG: 12734864 - OnKey: left (f082) pressed, action is Left
  23. 03:42:49 T:12734864 DEBUG: 12734864 - SDLKeyboard: scancode: 74, sym: 0112, unicode: 0000, modifier: 0
  24. 03:42:49 T:12734864 DEBUG: 12734864 - OnKey: down (f081) pressed, action is Down
  25. 03:43:18 T:12734864 DEBUG: 12734864 - SECTION:UnloadDelayed(DLL: special://xbmcbin/system/ImageLib-i486-linux.so)
  26. 03:43:18 T:12734864 DEBUG: 12734864 - Unloading: ImageLib-i486-linux.so
  27. 03:43:18 T:59935600 DEBUG: 59935600 - Thread Jobworker 59935600 terminating (autodelete)
  28. 03:43:33 T:12734864 DEBUG: 12734864 - SDLKeyboard: scancode: 72, sym: 0113, unicode: 0000, modifier: 0
  29. 03:43:33 T:12734864 DEBUG: 12734864 - OnKey: right (f083) pressed, action is Right
  30. 03:43:33 T:12734864 DEBUG: 12734864 - SDLKeyboard: scancode: 72, sym: 0113, unicode: 0000, modifier: 0
  31. 03:43:33 T:12734864 DEBUG: 12734864 - OnKey: right (f083) pressed, action is Right
  32. 03:43:34 T:12734864 DEBUG: 12734864 - SDLKeyboard: scancode: 24, sym: 000d, unicode: 000d, modifier: 0
  33. 03:43:34 T:12734864 DEBUG: 12734864 - OnKey: return (f00d) pressed, action is Select
  34. 03:43:34 T:12734864 DEBUG: 12734864 - ExecuteXBMCAction : Translating ActivateWindow(PVR)
  35. 03:43:34 T:12734864 DEBUG: 12734864 - ExecuteXBMCAction : To ActivateWindow(PVR)
  36. 03:43:34 T:12734864 DEBUG: 12734864 - Activating window ID: 10600
  37. 03:43:34 T:12734864 DEBUG: 12734864 - ------ Window Deinit (Home.xml) ------
  38. 03:43:34 T:12734864 DEBUG: 12734864 - ------ Window Init (MyPVR.xml) ------
  39. 03:43:34 T:12734864 INFO: 12734864 - Loading skin file: MyPVR.xml
  40. 03:43:34 T:12734864 DEBUG: 12734864 - Load MyPVR.xml: 24.40ms
  41. 03:43:34 T:12734864 DEBUG: 12734864 - Alloc resources: 25.03ms (24.74 ms skin load)
  42. 03:43:34 T:12734864 DEBUG: 12734864 - CGUIMediaWindow::GetDirectory ()
  43. 03:43:34 T:12734864 DEBUG: 12734864 - ParentPath = []
  44. 03:43:34 T:12734864 DEBUG: 12734864 - CGUIWindowPVRCommon - OnMessageFocus - focus set to window 'epg'
  45. 03:43:34 T:12734864 DEBUG: 12734864 - CGUIWindowPVRGuide - UpdateData - update window 'epg'. set view to 16
  46. 03:43:34 T:12734864 DEBUG: 12734864 - CGUIEPGGridContainer - SetStartEnd - start=23/09/2011 3:30:00 AM end=25/09/2011 3:30:00 AM
  47. 03:43:34 T:12734864 DEBUG: 12734864 - UpdateItems completed successfully in 35 ms
  48. 03:43:34 T:12734864 DEBUG: 12734864 - CGUIWindowPVRCommon - OnMessageFocus - focus set to window 'epg'
  49. 03:43:34 T:12734864 DEBUG: 12734864 - ExecuteXBMCAction : Translating Setfocus(34)
  50. 03:43:34 T:12734864 DEBUG: 12734864 - ExecuteXBMCAction : To Setfocus(34)
  51. 03:43:34 T:12734864 DEBUG: 12734864 - CGUIWindowPVRCommon - OnMessageFocus - focus set to window 'recordings'
  52. 03:43:34 T:12734864 DEBUG: 12734864 - CGUIWindowPVRRecordings - UpdateData - update window 'recordings'. set view to 13
  53. 03:43:34 T:12734864 DEBUG: 12734864 - CGUIMediaWindow::GetDirectory (pvr://recordings/)
  54. 03:43:34 T:12734864 DEBUG: 12734864 - ParentPath = []
  55. 03:43:34 T:59935600 DEBUG: 59935600 - Thread Jobworker start, auto delete: 1
  56. 03:43:34 T:59935600 DEBUG: 59935600 - CPVRDirectory::GetDirectory(pvr://recordings)
  57. 03:43:34 T:12734864 DEBUG: 12734864 - ExecuteXBMCAction : Translating Setfocus(13)
  58. 03:43:34 T:12734864 DEBUG: 12734864 - ExecuteXBMCAction : To Setfocus(13)
  59. 03:43:35 T:12734864 DEBUG: 12734864 - SDLKeyboard: scancode: 6f, sym: 0111, unicode: 0000, modifier: 0
  60. 03:43:35 T:12734864 DEBUG: 12734864 - OnKey: up (f080) pressed, action is Up
  61. 03:43:36 T:12734864 DEBUG: 12734864 - SDLKeyboard: scancode: 74, sym: 0112, unicode: 0000, modifier: 0
  62. 03:43:36 T:12734864 DEBUG: 12734864 - OnKey: down (f081) pressed, action is Down
  63. 03:43:38 T:12734864 DEBUG: 12734864 - SDLKeyboard: scancode: 16, sym: 0008, unicode: 0008, modifier: 0
  64. 03:43:38 T:12734864 DEBUG: 12734864 - OnKey: backspace (f008) pressed, action is Back
  65. 03:43:38 T:12734864 DEBUG: 12734864 - CGUIWindowManager::PreviousWindow: Deactivate
  66. 03:43:39 T:12734864 DEBUG: 12734864 - ------ Window Deinit (MyPVR.xml) ------
  67. 03:43:39 T:12734864 DEBUG: 12734864 - CGUIWindowManager::PreviousWindow: Activate new
  68. 03:43:39 T:12734864 DEBUG: 12734864 - ------ Window Init (Home.xml) ------
  69. 03:43:39 T:12734864 INFO: 12734864 - Loading skin file: Home.xml
  70. 03:43:39 T:12734864 DEBUG: 12734864 - Load Home.xml: 19.27ms
  71. 03:43:39 T:12734864 DEBUG: 12734864 - Alloc resources: 20.14ms (19.50 ms skin load)
  72. 03:43:39 T:12734864 DEBUG: 12734864 - SECTION:LoadDLL(special://xbmcbin/system/ImageLib-i486-linux.so)
  73. 03:43:39 T:12734864 DEBUG: 12734864 - Loading: /home/myth/src/xbmc-tsp-mythtv-addon/system/ImageLib-i486-linux.so
  74. 03:43:40 T:12734864 DEBUG: 12734864 - SDLKeyboard: scancode: 74, sym: 0112, unicode: 0000, modifier: 0
  75. 03:43:40 T:12734864 DEBUG: 12734864 - OnKey: down (f081) pressed, action is Down
  76. 03:43:41 T:12734864 DEBUG: 12734864 - SDLKeyboard: scancode: 74, sym: 0112, unicode: 0000, modifier: 0
  77. 03:43:41 T:12734864 DEBUG: 12734864 - OnKey: down (f081) pressed, action is Down
  78. 03:43:41 T:12734864 DEBUG: 12734864 - SDLKeyboard: scancode: 72, sym: 0113, unicode: 0000, modifier: 0
  79. 03:43:41 T:12734864 DEBUG: 12734864 - OnKey: right (f083) pressed, action is Right
  80. 03:43:41 T:12734864 DEBUG: 12734864 - SDLKeyboard: scancode: 6f, sym: 0111, unicode: 0000, modifier: 0
  81. 03:43:41 T:12734864 DEBUG: 12734864 - OnKey: up (f080) pressed, action is Up
  82. 03:43:42 T:12734864 DEBUG: 12734864 - SDLKeyboard: scancode: 24, sym: 000d, unicode: 000d, modifier: 0
  83. 03:43:42 T:12734864 DEBUG: 12734864 - OnKey: return (f00d) pressed, action is Select
  84. 03:43:42 T:12734864 DEBUG: 12734864 - ExecuteXBMCAction : Translating ActivateWindow(PVR)
  85. 03:43:42 T:12734864 DEBUG: 12734864 - ExecuteXBMCAction : To ActivateWindow(PVR)
  86. 03:43:42 T:12734864 DEBUG: 12734864 - Activating window ID: 10600
  87. 03:43:42 T:12734864 DEBUG: 12734864 - ------ Window Deinit (Home.xml) ------
  88. 03:43:42 T:12734864 DEBUG: 12734864 - ------ Window Init (MyPVR.xml) ------
  89. 03:43:42 T:12734864 INFO: 12734864 - Loading skin file: MyPVR.xml
  90. 03:43:42 T:12734864 DEBUG: 12734864 - Load MyPVR.xml: 31.57ms
  91. 03:43:42 T:12734864 DEBUG: 12734864 - Alloc resources: 32.15ms (31.87 ms skin load)
  92. 03:43:42 T:12734864 DEBUG: 12734864 - CGUIMediaWindow::GetDirectory (pvr://recordings/)
  93. 03:43:42 T:12734864 DEBUG: 12734864 - ParentPath = [pvr://recordings/]
  94. 03:43:42 T:12734864 DEBUG: 12734864 - CPVRDirectory::GetDirectory(pvr://recordings)
  95. 03:43:42 T:12734864 DEBUG: 12734864 - CGUIWindowPVRCommon - OnMessageFocus - focus set to window 'recordings'
  96. 03:43:42 T:12734864 DEBUG: 12734864 - CGUIWindowPVRRecordings - UpdateData - update window 'recordings'. set view to 13
  97. 03:43:42 T:12734864 DEBUG: 12734864 - CGUIMediaWindow::GetDirectory (pvr://recordings/)
  98. 03:43:42 T:12734864 DEBUG: 12734864 - ParentPath = [pvr://recordings/]
  99. 03:43:42 T:59935600 DEBUG: 59935600 - CPVRDirectory::GetDirectory(pvr://recordings)
  100. 03:43:42 T:12734864 DEBUG: 12734864 - ExecuteXBMCAction : Translating Setfocus(34)
  101. 03:43:42 T:12734864 DEBUG: 12734864 - ExecuteXBMCAction : To Setfocus(34)
  102. 03:43:42 T:12734864 DEBUG: 12734864 - CGUIWindowPVRCommon - OnMessageFocus - focus set to window 'recordings'
  103. 03:43:42 T:12734864 DEBUG: 12734864 - ExecuteXBMCAction : Translating Setfocus(13)
  104. 03:43:42 T:12734864 DEBUG: 12734864 - ExecuteXBMCAction : To Setfocus(13)
  105. 03:43:42 T:3070823280 DEBUG: -1224144016 - CPVRTimers - Update - updating timers
  106. 03:43:42 T:3070823280 ERROR: -1224144016 - CAddonCallbacksPVR - PVRTransferTimerEntry - cannot find channel 0 on client 1
  107. 03:43:42 T:3070823280 ERROR: Previous line repeats 8 times.
  108. 03:43:42 T:3070823280 ERROR: -1224144016 - CAddonCallbacksPVR - PVRTransferTimerEntry - cannot find channel 1090 on client 1
  109. 03:43:42 T:3070823280 ERROR: Previous line repeats 3 times.
  110. 03:43:42 T:3070823280 DEBUG: -1224144016 - PVRTimers - UpdateEntries - updated timer 7 on client 1
  111. 03:43:42 T:3070823280 DEBUG: -1224144016 - PVRTimers - UpdateEntries - updated timer 15 on client 1
  112. 03:43:42 T:3070823280 DEBUG: -1224144016 - PVRTimers - UpdateEntries - updated timer 30 on client 1
  113. 03:43:42 T:3070823280 DEBUG: -1224144016 - PVRTimers - UpdateEntries - updated timer 38 on client 1
  114. 03:43:42 T:3070823280 DEBUG: -1224144016 - PVRTimers - UpdateEntries - updated timer 41 on client 1
  115. 03:43:42 T:3070823280 DEBUG: -1224144016 - PVRTimers - UpdateEntries - updated timer 51 on client 1
  116. 03:43:42 T:3070823280 DEBUG: -1224144016 - PVRTimers - UpdateEntries - updated timer 57 on client 1
  117. 03:43:42 T:3070823280 DEBUG: -1224144016 - PVRTimers - UpdateEntries - updated timer 72 on client 1
  118. 03:43:42 T:3070823280 DEBUG: -1224144016 - PVRTimers - UpdateEntries - updated timer 73 on client 1
  119. 03:43:42 T:3070823280 DEBUG: -1224144016 - PVRTimers - UpdateEntries - updated timer 82 on client 1
  120. 03:43:42 T:3070823280 DEBUG: -1224144016 - PVRTimers - UpdateEntries - updated timer 86 on client 1
  121. 03:43:42 T:3070823280 DEBUG: -1224144016 - PVRTimers - UpdateEntries - updated timer 87 on client 1
  122. 03:43:42 T:3070823280 DEBUG: -1224144016 - PVRTimers - UpdateEntries - updated timer 94 on client 1
  123. 03:43:42 T:3070823280 DEBUG: -1224144016 - PVRTimers - UpdateEntries - updated timer 116 on client 1
  124. 03:43:42 T:3070823280 DEBUG: -1224144016 - PVRTimers - UpdateEntries - updated timer 119 on client 1
  125. 03:43:42 T:3070823280 DEBUG: -1224144016 - PVRTimers - UpdateEntries - updated timer 121 on client 1
  126. 03:43:42 T:3070823280 DEBUG: -1224144016 - PVRTimers - UpdateEntries - updated timer 122 on client 1
  127. 03:43:42 T:3070823280 DEBUG: -1224144016 - PVRTimers - UpdateEntries - updated timer 123 on client 1
  128. 03:43:42 T:3070823280 DEBUG: -1224144016 - PVRTimers - UpdateEntries - updated timer 134 on client 1
  129. 03:43:42 T:3070823280 DEBUG: -1224144016 - PVRTimers - UpdateEntries - updated timer 135 on client 1
  130. 03:43:42 T:3070823280 DEBUG: -1224144016 - PVRTimers - UpdateEntries - updated timer 137 on client 1
  131. 03:43:42 T:3070823280 DEBUG: -1224144016 - PVRTimers - UpdateEntries - updated timer 144 on client 1
  132. 03:43:42 T:3070823280 DEBUG: -1224144016 - PVRTimers - UpdateEntries - updated timer 146 on client 1
  133. 03:43:42 T:3070823280 DEBUG: -1224144016 - PVRTimers - UpdateEntries - updated timer 163 on client 1
  134. 03:43:42 T:3070823280 DEBUG: -1224144016 - PVRTimers - UpdateEntries - updated timer 164 on client 1
  135. 03:43:42 T:3070823280 DEBUG: -1224144016 - PVRTimers - UpdateEntries - updated timer 165 on client 1
  136. 03:43:42 T:3070823280 DEBUG: -1224144016 - PVRTimers - UpdateEntries - updated timer 167 on client 1
  137. 03:43:42 T:3070823280 DEBUG: -1224144016 - PVRTimers - UpdateEntries - updated timer 169 on client 1
  138. 03:43:42 T:3070823280 DEBUG: -1224144016 - PVRTimers - UpdateEntries - updated timer 170 on client 1
  139. 03:43:52 T:12734864 DEBUG: 12734864 - SDLKeyboard: scancode: 6f, sym: 0111, unicode: 0000, modifier: 0
  140. 03:43:52 T:12734864 DEBUG: 12734864 - OnKey: up (f080) pressed, action is Up
  141. 03:43:55 T:12734864 DEBUG: 12734864 - SDLKeyboard: scancode: 24, sym: 000d, unicode: 000d, modifier: 0
  142. 03:43:55 T:12734864 DEBUG: 12734864 - OnKey: return (f00d) pressed, action is Select
  143. 03:43:55 T:12734864 DEBUG: 12734864 - CGUIMediaWindow::GetDirectory (pvr://recordings//LiveTV/)
  144. 03:43:55 T:12734864 DEBUG: 12734864 - ParentPath = [pvr://recordings/]
  145. 03:43:55 T:59935600 DEBUG: 59935600 - CPVRDirectory::GetDirectory(pvr://recordings//LiveTV)
  146. 03:43:58 T:12734864 DEBUG: 12734864 - SDLKeyboard: scancode: 16, sym: 0008, unicode: 0008, modifier: 0
  147. 03:43:58 T:12734864 DEBUG: 12734864 - OnKey: backspace (f008) pressed, action is Back
  148. 03:43:58 T:12734864 DEBUG: 12734864 - CGUIMediaWindow::GetDirectory (pvr://recordings/)
  149. 03:43:58 T:12734864 DEBUG: 12734864 - ParentPath = []
  150. 03:43:58 T:59935600 DEBUG: 59935600 - CPVRDirectory::GetDirectory(pvr://recordings)
  151. 03:44:09 T:12734864 DEBUG: 12734864 - SECTION:UnloadDelayed(DLL: special://xbmcbin/system/ImageLib-i486-linux.so)
  152. 03:44:09 T:12734864 DEBUG: 12734864 - Unloading: ImageLib-i486-linux.so
  153. 03:44:13 T:12734864 DEBUG: 12734864 - SDLKeyboard: scancode: 6f, sym: 0111, unicode: 0000, modifier: 0
  154. 03:44:13 T:12734864 DEBUG: 12734864 - OnKey: up (f080) pressed, action is Up
  155. 03:44:13 T:12734864 DEBUG: 12734864 - SDLKeyboard: scancode: 6f, sym: 0111, unicode: 0000, modifier: 0
  156. 03:44:13 T:12734864 DEBUG: 12734864 - OnKey: up (f080) pressed, action is Up
  157. 03:44:13 T:12734864 DEBUG: 12734864 - SDLKeyboard: scancode: 6f, sym: 0111, unicode: 0000, modifier: 0
  158. 03:44:13 T:12734864 DEBUG: 12734864 - OnKey: up (f080) pressed, action is Up
  159. 03:44:14 T:12734864 DEBUG: 12734864 - SDLKeyboard: scancode: 24, sym: 000d, unicode: 000d, modifier: 0
  160. 03:44:14 T:12734864 DEBUG: 12734864 - OnKey: return (f00d) pressed, action is Select
  161. 03:44:14 T:12734864 DEBUG: 12734864 - CPlayerCoreFactory::GetPlayers(pvr://recordings/00001-/1070_20110717204000.mpg.pvr)
  162. 03:44:14 T:12734864 DEBUG: 12734864 - CPlayerSelectionRule::GetPlayers: considering rule: system rules
  163. 03:44:14 T:12734864 DEBUG: 12734864 - CPlayerSelectionRule::GetPlayers: matches rule: system rules
  164. 03:44:14 T:12734864 DEBUG: 12734864 - CPlayerSelectionRule::GetPlayers: considering rule: rtv
  165. 03:44:14 T:12734864 DEBUG: 12734864 - CPlayerSelectionRule::GetPlayers: considering rule: hdhomerun/myth/rtmp/mms/udp
  166. 03:44:14 T:12734864 DEBUG: 12734864 - CPlayerSelectionRule::GetPlayers: considering rule: lastfm/shout
  167. 03:44:14 T:12734864 DEBUG: 12734864 - CPlayerSelectionRule::GetPlayers: considering rule: rtsp
  168. 03:44:14 T:12734864 DEBUG: 12734864 - CPlayerSelectionRule::GetPlayers: considering rule: streams
  169. 03:44:14 T:12734864 DEBUG: 12734864 - CPlayerSelectionRule::GetPlayers: considering rule: dvd
  170. 03:44:14 T:12734864 DEBUG: 12734864 - CPlayerSelectionRule::GetPlayers: considering rule: dvdfile
  171. 03:44:14 T:12734864 DEBUG: 12734864 - CPlayerSelectionRule::GetPlayers: considering rule: dvdimage
  172. 03:44:14 T:12734864 DEBUG: 12734864 - CPlayerSelectionRule::GetPlayers: considering rule: sdp/asf
  173. 03:44:14 T:12734864 DEBUG: 12734864 - CPlayerSelectionRule::GetPlayers: considering rule: nsv
  174. 03:44:14 T:12734864 DEBUG: 12734864 - CPlayerSelectionRule::GetPlayers: considering rule: radio
  175. 03:44:14 T:12734864 DEBUG: 12734864 - CPlayerCoreFactory::GetPlayers: matched 0 rules with players
  176. 03:44:14 T:12734864 DEBUG: 12734864 - CPlayerCoreFactory::GetPlayers: adding videodefaultplayer (1)
  177. 03:44:14 T:12734864 DEBUG: 12734864 - CPlayerCoreFactory::GetPlayers: for video=1, audio=0
  178. 03:44:14 T:12734864 DEBUG: 12734864 - CPlayerCoreFactory::GetPlayers: for video=1, audio=1
  179. 03:44:14 T:12734864 DEBUG: 12734864 - CPlayerCoreFactory::GetPlayers: adding player: DVDPlayer (1)
  180. 03:44:14 T:12734864 DEBUG: 12734864 - CPlayerCoreFactory::GetPlayers: added 1 players
  181. 03:44:14 T:12734864 NOTICE: 12734864 - DVDPlayer: Opening: pvr://recordings/00001-/1070_20110717204000.mpg.pvr
  182. 03:44:14 T:12734864 WARNING: 12734864 - CDVDMessageQueue(player)::Put MSGQ_NOT_INITIALIZED
  183. 03:44:14 T:2924469104 DEBUG: -1370498192 - Thread CDVDPlayer start, auto delete: 0
  184. 03:44:14 T:2924469104 NOTICE: -1370498192 - Creating InputStream
  185. 03:44:14 T:2924469104 DEBUG: -1370498192 - PVRManager - OpenRecordedStream - opening recorded stream ''
  186. 03:44:14 T:12734864 DEBUG: 12734864 - ------ Window Init (DialogBusy.xml) ------
  187. 03:44:14 T:12734864 DEBUG: 12734864 - Alloc resources: 0.01ms (0.00 ms skin load)
  188. 03:44:14 T:2924469104 DEBUG: -1370498192 - Open - Recording has started on filename pvr://recordings/00001-/1070_20110717204000.mpg.pvr
  189. 03:44:14 T:2924469104 NOTICE: -1370498192 - Creating Demuxer
  190. 03:44:14 T:2924469104 DEBUG: -1370498192 - SECTION:LoadDLL(special://xbmcbin/system/players/dvdplayer/avcore-0-i486-linux.so)
  191. 03:44:14 T:2924469104 DEBUG: -1370498192 - Loading: /home/myth/src/xbmc-tsp-mythtv-addon/system/players/dvdplayer/avcore-0-i486-linux.so
  192. 03:44:14 T:2924469104 DEBUG: -1370498192 - SECTION:LoadDLL(special://xbmcbin/system/players/dvdplayer/avcodec-52-i486-linux.so)
  193. 03:44:14 T:2924469104 DEBUG: -1370498192 - Loading: /home/myth/src/xbmc-tsp-mythtv-addon/system/players/dvdplayer/avcodec-52-i486-linux.so
  194. 03:44:14 T:2924469104 DEBUG: -1370498192 - SECTION:LoadDLL(special://xbmcbin/system/players/dvdplayer/avformat-52-i486-linux.so)
  195. 03:44:14 T:2924469104 DEBUG: -1370498192 - Loading: /home/myth/src/xbmc-tsp-mythtv-addon/system/players/dvdplayer/avformat-52-i486-linux.so
  196. 03:44:28 T:59935600 DEBUG: 59935600 - Thread Jobworker 59935600 terminating (autodelete)
  197. 03:45:01 T:12734864 DEBUG: 12734864 - HttpApi Start command: GetCurrentlyPlaying paras: GetCurrentlyPlaying
  198. 03:47:14 T:12734864 DEBUG: 12734864 - CAnnouncementManager - Announcement: OnScreensaverActivated from xbmc
  199. 03:47:14 T:12734864 DEBUG: 12734864 - GOT ANNOUNCEMENT, type: 2, from xbmc, message OnScreensaverActivated
  200. 03:47:14 T:12734864 DEBUG: 12734864 - ------ Window Init () ------
  201. 03:47:14 T:12734864 DEBUG: 12734864 - Alloc resources: 0.00ms (0.00 ms skin load)
  202. 03:48:42 T:59935600 DEBUG: 59935600 - Thread Jobworker start, auto delete: 1
RAW Paste Data